Weather in Girvas

Russia / Republic of Karelia     62°28′26″N   33°40′41″E
temp.,
°C
wind,
m/s
gust,
m/s
humid.,
%
clouds,
%
prec.,
mm/h
press.,
hPa
HPBL,
m
21 january, fri
fri2100:00−1sse2799100 2.3 987341
03:00−1s2798100 3.9 989354
06:00−1ssw2798100 0.7 990361
09:00−3ssw3896100 1.3 993360
12:00−3ssw2796100 0.4 996353
15:00−8sw1198100 0.4 100010
18:00−7nnw1199100 0.0 100352
21:00−7n2597100 0.1 1006122
22 january, sat
sat2200:00−11n2898100 0.0 1009140
03:00−8n31095100 0.2 1010307
06:00−6nne31095100 0.3 1011444
09:00−7nne2896100 0.5 1014249
12:00−7nne3796100 0.2 1016266
15:00−8nne259798 0.3 1017141
18:00−10n119892 0.1 101925
21:00−13n119989 0.2 102110
23 january, sun
sun2300:00−16nw009995 0.1 10229
03:00−20w11100100 0.1 10249
06:00−22sw11100100 0.0 102410
09:00−21sw11100100 0.1 102510
12:00−12ssw3995100 0.0 1024205
15:00−9sw31194100 0.0 1025420
18:00−8ssw4129389 0.2 1025444
21:00−7sw41493100 0.3 1025522
24 january, mon
mon2400:00−6ssw41293100 0.0 1025470
03:00−4sw51392100 0.1 1025522
06:00−4sw51493100 0.1 1023476
09:00−4ssw51595100 0.2 1023516
12:00−4ssw51795100 0.0 1021581
15:00−3ssw61894100 0.1 1018722
18:00−3ssw72092100 0.0 1016824
21:00−3ssw71891100 0.1 1012937
25 january, tue
tue2500:00−4ssw71889100 0.1 1010862
03:00−3ssw71790100 0.3 1008875
06:00−3sw61490100 0.1 1008612
09:00−4ssw51291100 0.2 1007389
12:00−3s2695100 0.0 1007274
15:00−4ese2397100 0.1 1007191
18:00−5e2498100 0.3 1008172
21:00−6ne3697100 0.4 1010211